This demonstration page uses our WeatherBlox Daily Observations layout. Learn more.

Left ArrowRight Arrow

Hourly Observations for May 25, 2021

Temp ( °F °C ) Dew Point ( °F °C ) Humidity (%) Winds ( mph kmh ) Pressure ( in mb ) Visibility ( mi km ) Precip ( " mm )
12:19 am 00:19 Partly Cloudy 66 19 64 18 94 94 S 12 19 29.86 1011 10 16 0.00 0.00
12:45 am 00:45 Mostly Cloudy 66 19 64 18 94 94 S 9 15 29.86 1011 10 16 0.00 0.00
12:56 am 00:56 Mostly Cloudy 66 18.9 64 17.8 93 93 S 10 17 29.89 1012 10 16 0.00 0.00
1:12 am 01:12 Partly Cloudy 66 19 64 18 94 94 S 9 15 29.85 1011 10 16 0.00 0.00
1:56 am 01:56 Clear 64 17.8 63 17.2 96 96 S 5 7 29.89 1012 10 16 0.00 0.00
2:08 am 02:08 Mostly Clear 64 18 63 17 94 94 S 5 7 29.86 1011 10 16 0.00 0.00
2:36 am 02:36 Mostly Cloudy 64 18 63 17 94 94 SSW 3 6 29.87 1012 10 16 0.00 0.00
2:56 am 02:56 Cloudy 64 17.8 63 17.2 96 96 SSW 3 6 29.89 1012 10 16 0.00 0.00
3:56 am 03:56 Mostly Cloudy 63 17.2 62 16.7 97 97 S 7 11 29.88 1012 10 16 0.00 0.00
4:10 am 04:10 Mostly Cloudy 63 17 63 17 100 100 S 7 11 29.87 1012 10 16 0.00 0.00
4:30 am 04:30 Partly Cloudy 63 17 63 17 100 100 SSW 7 11 29.86 1011 10 16 0.00 0.00
4:56 am 04:56 Clear 63 17.2 63 17.2 100 100 S 7 11 29.87 1011 10 16 0.00 0.00
5:56 am 05:56 Clear 64 17.8 63 17.2 96 96 SW 9 15 29.90 1012 10 16 0.00 0.00
6:56 am 06:56 Cloudy 64 17.8 63 17.2 96 96 W 15 24 29.93 1014 7 11 0.00 0.00
7:56 am 07:56 Cloudy with Rain 64 17.8 56 13.3 75 75 W 10 17 29.96 1014 10 16 0.05 1.27
8:56 am 08:56 Mostly Cloudy 63 17.2 55 12.8 76 76 ESE 14 22 29.88 1012 10 16 0.03 0.76
9:56 am 09:56 Partly Cloudy 68 20 58 14.4 70 70 NW 14 22 29.92 1013 10 16 0.00 0.00
10:56 am 10:56 Sunny 75 23.9 59 15 58 58 WNW 14 22 29.93 1013 10 16 0.00 0.00
11:56 am 11:56 Sunny 76 24.4 50 10 40 40 NNW 9 15 29.93 1014 10 16 0.00 0.00
12:56 pm 12:56 Sunny 77 25 50 10 39 39 WNW 9 15 29.93 1014 10 16 0.00 0.00
1:56 pm 13:56 Sunny 79 26.1 49 9.4 35 35 WNW 9 15 29.93 1013 10 16 0.00 0.00
2:56 pm 14:56 Sunny 80 26.7 51 10.6 37 37 W 12 19 29.91 1013 10 16 0.00 0.00
3:56 pm 15:56 Sunny 80 26.7 49 9.4 34 34 WSW 10 17 29.91 1013 10 16 0.00 0.00
4:56 pm 16:56 Sunny 81 27.2 47 8.3 30 30 W 10 17 29.91 1013 10 16 0.00 0.00
5:56 pm 17:56 Sunny 81 27.2 44 6.7 27 27 WNW 10 17 29.90 1013 10 16 0.00 0.00
6:56 pm 18:56 Sunny 80 26.7 47 8.3 31 31 NW 12 19 29.90 1013 10 16 0.00 0.00
7:56 pm 19:56 Sunny 78 25.6 49 9.4 36 36 NW 5 7 29.91 1013 10 16 0.00 0.00
8:56 pm 20:56 Clear 76 24.4 50 10 40 40 Calm 29.93 1014 10 16 0.00 0.00
9:56 pm 21:56 Clear 71 21.7 51 10.6 49 49 Calm 29.96 1015 10 16 0.00 0.00
10:56 pm 22:56 Clear 66 18.9 53 11.7 63 63 Calm 29.98 1015 10 16 0.00 0.00
11:56 pm 23:56 Clear 62 16.7 53 11.7 73 73 NNE 8 13 30.00 1016 10 16 0.00 0.00

Powered by AerisWeather